"2010-09-03 00:00:00",127021,1.085,55.27,19.14,0.174,15.2,106.581,16.12,16.99,37.11,0,111,13.17,16.93,17.3
"2010-09-03 00:00:30",127022,0.875,74.66,8.09,0.149,15.18,106.5695,16.09,16.98,37.23,0,111,13.17,16.90,36.7
"2010-09-03 00:01:00",127023,0.752,80.1,12.06,0.175,15.12,106.5706,16.09,16.97,36.59,0,111,13.17,16.90,42.1
"2010-09-03 00:01:30",127024,0.652,108.9,26.58,0.147,15,106.5993,16.17,17,36.5,0,111,13.17,16.98,70.9
"2010-09-03 00:02:00",127025,0.825,130.2,5.339,0.225,15.1,106.6007,16.17,17.01,36.52,0,111,13.17,16.98,92.2
"2010-09-03 00:02:30",127026,0.949,123.1,12.17,0.24,15,106.603,16.18,17.02,37.08,0,111,13.17,16.99,85.1
"2010-09-03 00:03:00",127027,1.223,136.3,9.31,0.224,15,106.6044,16.18,17.04,37.16,0,111,13.17,16.99,98.3
"2010-09-03 00:03:30",127028,1.353,140.4,3.09,0.204,15.16,106.6091,16.19,17.04,37.29,0,111,13.17,17.00,102.4
"2010-09-03 00:04:00",127029,1.133,143.8,6.356,0.096,15.05,106.6168,16.21,17.03,37.17,0,111,13.17,17.02,105.8
"2010-09-03 00:04:30",127030,1.152,157.2,4.901,0.102,15.22,106.6111,16.2,17.06,36.88,0,111,13.17,17.01,119.2
"2010-09-03 00:05:00",127031,0.959,161.5,6.763,0.111,15.03,106.6145,16.21,17.04,37.18,0,111,13.17,17.02,123.5
"2010-09-03 00:05:30",127032,0.588,134.8,18.32,0.207,15.25,106.6033,16.18,17.06,37.31,0,111,13.17,16.99,96.8
"2010-09-03 00:06:00",127033,0.727,114.8,19.28,0.224,15.02,106.6002,16.17,17.04,37.31,0,111,13.17,16.98,76.8
"2010-09-03 00:06:30",127034,0.828,126.3,7.194,0.292,15.11,106.588,16.14,17.02,37.35,0,111,13.17,16.95,88.3
"2010-09-03 00:07:00",127035,0.764,128.5,8.53,0.178,15.08,106.5901,16.14,17.02,37.27,0,111,13.17,16.95,90.5
"2010-09-03 00:07:30",127036,1.036,146.6,8.2,0.226,15.06,106.5767,16.11,17,37.43,0,111,13.17,16.92,108.6
"2010-09-03 00:08:00",127037,0.816,162.1,13.58,0.137,15.23,106.567,16.09,16.99,37.43,0,111,13.16,16.89,124.1
"2010-09-03 00:08:30",127038,1.649,169,6.931,0.567,15.33,106.5682,16.09,16.98,38.4,0,111,13.16,16.90,131.0
"2010-09-03 00:09:00",127039,1.157,134.6,19.42,0.205,15.36,106.567,16.09,16.97,39.01,0,111,13.16,16.89,96.6
"2010-09-03 00:09:30",127040,1.552,123.6,5.506,0.287,15.23,106.567,16.09,16.97,38.67,0,111,13.16,16.89,85.6
"2010-09-03 00:10:00",127041,1.935,149.7,7.371,0.126,15.3,106.5671,16.09,16.95,38.41,0,111,13.16,16.89,111.7
"2010-09-03 00:10:30",127042,1.865,149.5,6.892,0.187,15.33,106.5523,16.05,16.93,38.44,0,111,13.16,16.86,111.5
"2010-09-03 00:11:00",127043,1.496,156,9.56,0.192,15.36,106.5374,16.01,16.92,38.36,0,111,13.16,16.82,118.0
"2010-09-03 00:11:30",127044,1.645,162.3,5.959,0.233,15.43,106.5391,16.01,16.91,38.39,0,111,13.16,16.82,124.3
"2010-09-03 00:12:00",127045,1.474,168.5,5.821,0.145,15.31,106.5616,16.07,16.9,37.99,0,111,13.16,16.88,130.5
"2010-09-03 00:12:30",127046,2.092,157.7,8.66,0.434,15.38,106.5724,16.1,16.93,38.17,0,111,13.16,16.91,119.7
"2010-09-03 00:13:00",127047,1.702,140.7,7.941,0.171,15.4,106.573,16.1,16.93,38.16,0,111,13.16,16.91,102.7
"2010-09-03 00:13:30",127048,1.379,159.7,8.57,0.375,15.43,106.5742,16.1,16.93,38.15,0,111,13.17,16.91,121.7
"2010-09-03 00:14:00",127049,1.172,170.2,21.47,0.497,15.31,106.5745,16.1,16.93,38.14,0,111,13.17,16.91,132.2
"2010-09-03 00:14:30",127050,1.293,163.9,10.7,0.193,15.38,106.5745,16.1,16.93,38.09,0,111,13.17,16.91,125.9
"2010-09-03 00:15:00",127051,1.897,183.3,7.67,0.187,15.41,106.5745,16.1,16.94,38.03,0,111,13.17,16.91,145.3
"2010-09-03 00:15:30",127052,2.096,161.6,6.955,0.295,15.44,106.572,16.1,16.93,38.4,0,111,13.17,16.91,123.6
"2010-09-03 00:16:00",127053,1.96,167,7.438,0.178,15.49,106.5565,16.06,16.92,38.34,0,111,13.17,16.87,129.0
"2010-09-03 00:16:30",127054,1.567,190.2,7.817,0.164,15.52,106.5489,16.04,16.91,38.42,0,111,13.17,16.85,152.2
"2010-09-03 00:17:00",127055,1.342,185.2,5.269,0.174,15.47,106.5416,16.02,16.91,38.11,0,111,13.17,16.83,147.2
"2010-09-03 00:17:30",127056,1.555,181.2,4.693,0.275,15.42,106.5408,16.02,16.92,37.76,0,111,13.17,16.83,143.2
"2010-09-03 00:18:00",127057,1.716,179.5,3.24,0.099,15.34,106.5408,16.02,16.9,37.78,0,111,13.17,16.83,141.5
"2010-09-03 00:18:30",127058,1.72,189.8,10.1,0.262,15.46,106.5408,16.02,16.9,37.74,0,111,13.17,16.83,151.8
"2010-09-03 00:19:00",127059,1.442,177.5,8.77,0.357,15.46,106.5408,16.02,16.89,37.72,0,110.9,13.17,16.83,139.5
"2010-09-03 00:19:30",127060,2.656,178.6,4.503,0.756,15.41,106.5408,16.02,16.9,37.82,0,110.9,13.17,16.83,140.6
"2010-09-03 00:20:00",127061,3.034,163.5,6.424,0.319,15.55,106.5408,16.02,16.9,38.03,0,110.9,13.17,16.83,125.5
"2010-09-03 00:20:30",127062,2.548,153.2,8.02,0.103,15.59,106.5408,16.02,16.89,38.19,0,110.9,13.18,16.83,115.2
"2010-09-03 00:21:00",127063,2.474,160.1,3.941,0.098,15.66,106.5408,16.02,16.9,38.07,0,110.9,13.18,16.83,122.1
"2010-09-03 00:21:30",127064,2.419,169.2,4.053,0.283,15.64,106.5408,16.02,16.9,38.08,0,110.9,13.18,16.83,131.2
"2010-09-03 00:22:00",127065,1.785,172.4,4.367,0.225,15.6,106.5408,16.02,16.89,38.12,0,110.9,13.18,16.83,134.4
"2010-09-03 00:22:30",127066,2.047,176.4,4.998,0.35,15.57,106.5432,16.02,16.9,38.16,0,110.9,13.18,16.83,138.4
"2010-09-03 00:23:00",127067,1.397,172.6,5.234,0.169,15.53,106.5438,16.03,16.9,38.22,0,110.9,13.18,16.83,134.6
"2010-09-03 00:23:30",127068,1.197,180,14.22,0.278,15.58,106.5447,16.03,16.88,38.23,0,110.9,13.18,16.84,142.0
"2010-09-03 00:24:00",127069,1.433,158.4,5.947,0.321,15.58,106.5359,16.01,16.88,38.4,0,110.9,13.18,16.81,120.4
"2010-09-03 00:24:30",127070,1.567,142.4,13.73,0.237,15.42,106.5199,15.96,16.89,38.2,0,110.9,13.18,16.77,104.4
"2010-09-03 00:25:00",127071,1.8,142.2,5.119,0.261,15.44,106.5132,15.95,16.88,38.04,0,110.9,13.17,16.76,104.2
"2010-09-03 00:25:30",127072,1.771,143.4,6.259,0.156,15.51,106.5122,15.94,16.87,38,0,110.9,13.17,16.75,105.4
"2010-09-03 00:26:00",127073,1.357,136,9.84,0.093,15.55,106.5149,15.95,16.84,38.13,0,110.9,13.17,16.76,98.0
"2010-09-03 00:26:30",127074,1.247,136.3,6.852,0.152,15.43,106.5196,15.96,16.85,38.28,0,110.9,13.17,16.77,98.3
"2010-09-03 00:27:00",127075,0.801,159.9,10.07,0.16,15.58,106.5202,15.97,16.85,38.1,0,110.9,13.17,16.77,121.9
"2010-09-03 00:27:30",127076,0.96,172.7,8.9,0.104,15.5,106.5232,15.97,16.85,38.15,0,110.9,13.17,16.78,134.7
"2010-09-03 00:28:00",127077,0.854,168.2,10.49,0.112,15.5,106.5301,15.99,16.86,38.16,0,110.9,13.17,16.80,130.2
"2010-09-03 00:28:30",127078,0.766,203.7,7.961,0.142,15.46,106.5316,15.99,16.85,38.2,0,110.9,13.17,16.80,165.7
"2010-09-03 00:29:00",127079,0.708,195.1,14.64,0.199,15.45,106.5334,16,16.85,38.23,0,110.9,13.17,16.81,157.1
"2010-09-03 00:29:30",127080,0.957,199.5,11.41,0.126,15.37,106.5337,16,16.84,38.28,0,110.9,13.17,16.81,161.5
"2010-09-03 00:30:00",127081,1.035,177.1,11.73,0.153,15.34,106.5337,16,16.85,38.19,0,110.9,13.18,16.81,139.1
"2010-09-03 00:30:30",127082,0.96,193.3,15.21,0.261,15.45,106.534,16,16.84,38.09,0,110.9,13.18,16.81,155.3
"2010-09-03 00:31:00",127083,1.057,203.3,6.351,0.116,15.39,106.534,16,16.84,37.88,0,110.9,13.18,16.81,165.3
"2010-09-03 00:31:30",127084,1.583,206.9,6.186,0.242,15.46,106.534,16,16.85,38.01,0,110.9,13.18,16.81,168.9
"2010-09-03 00:32:00",127085,1.255,188.4,5.571,0.175,15.59,106.5343,16,16.86,38.04,0,110.9,13.18,16.81,150.4
"2010-09-03 00:32:30",127086,1.21,158.5,14.85,0.104,15.61,106.5352,16,16.85,38.1,0,110.9,13.18,16.81,120.5
"2010-09-03 00:33:00",127087,1.173,135.1,5.292,0.154,15.46,106.5361,16.01,16.86,38.14,0,110.9,13.18,16.81,97.1
"2010-09-03 00:33:30",127088,1.221,153,14.98,0.335,15.57,106.5364,16.01,16.87,38.03,0,110.9,13.18,16.81,115.0
"2010-09-03 00:34:00",127089,1.766,168.5,3.464,0.147,15.68,106.54,16.02,16.86,37.82,0,110.9,13.18,16.82,130.5
"2010-09-03 00:34:30",127090,1.483,154,23.23,0.301,15.68,106.5426,16.02,16.87,37.49,0,110.9,13.18,16.83,116.0
"2010-09-03 00:35:00",127091,0.968,102.8,24.71,0.196,15.64,106.5474,16.04,16.89,37.58,0,110.9,13.18,16.84,64.8
"2010-09-03 00:35:30",127092,0.696,124.3,23.9,0.333,15.64,106.5531,16.05,16.88,37.48,0,110.9,13.18,16.86,86.3
"2010-09-03 00:36:00",127093,1.16,142.2,8.94,0.101,15.57,106.5568,16.06,16.9,37.21,0,110.9,13.18,16.87,104.2
"2010-09-03 00:36:30",127094,1.241,95.7,15.23,0.189,15.65,106.5523,16.05,16.89,37.41,0,110.9,13.18,16.86,57.7
"2010-09-03 00:37:00",127095,1.545,84.7,6.414,0.087,15.78,106.55,16.04,16.89,37.47,0,110.9,13.18,16.85,46.7
"2010-09-03 00:37:30",127096,1.41,77.76,8.39,0.259,15.61,106.5489,16.04,16.91,37.46,0,110.9,13.18,16.85,39.8
"2010-09-03 00:38:00",127097,0.789,81.5,9.91,0.126,15.57,106.5506,16.04,16.92,37.49,0,110.9,13.18,16.85,43.5
"2010-09-03 00:38:30",127098,0.827,61.71,21.09,0.297,15.63,106.5697,16.09,16.92,37.39,0,110.9,13.18,16.90,23.7
"2010-09-03 00:39:00",127099,0.76,84.2,20.06,0.213,15.59,106.5767,16.11,16.92,37.26,0,110.9,13.18,16.92,46.2
"2010-09-03 00:39:30",127100,0.445,63.14,7.101,0.099,15.81,106.5767,16.11,16.94,37.27,0,110.9,13.18,16.92,25.1
"2010-09-03 00:40:00",127101,0.302,58.07,11.74,0.062,15.8,106.5767,16.11,16.95,37.22,0,110.9,13.18,16.92,20.1
"2010-09-03 00:40:30",127102,0.294,31.07,10.92,0.127,15.54,106.5804,16.12,16.97,37.15,0,110.9,13.18,16.93,353.1
"2010-09-03 00:41:00",127103,0.349,45.51,17.98,0.118,15.67,106.5947,16.16,16.99,37.05,0,110.9,13.18,16.96,7.5
"2010-09-03 00:41:30",127104,0.19,50.38,31.25,0.111,15.7,106.6015,16.17,16.99,36.97,0,110.9,13.18,16.98,12.4
"2010-09-03 00:42:00",127105,0.102,21.34,47.66,0.205,15.53,106.5939,16.15,17.01,36.94,0,110.9,13.18,16.96,343.3
"2010-09-03 00:42:30",127106,0.011,93.6,48.9,0.088,15.51,106.6043,16.18,17.02,36.93,0,110.9,13.18,16.99,55.6
"2010-09-03 00:43:00",127107,0.135,131.5,19.26,0.072,15.74,106.6062,16.19,17.03,36.84,0,110.9,13.18,16.99,93.5
"2010-09-03 00:43:30",127108,-0.045,141.7,48.32,0.082,15.6,106.5908,16.15,17.03,36.83,0,110.9,13.18,16.95,103.7
"2010-09-03 00:44:00",127109,-0.078,132.4,71.11,0.062,15.68,106.5837,16.13,17.03,36.82,0,110.9,13.18,16.94,94.4
"2010-09-03 00:44:30",127110,0.2,59.26,10.79,0.085,15.61,106.5767,16.11,17.03,36.86,0,110.9,13.18,16.92,21.3
"2010-09-03 00:45:00",127111,0.193,57.13,9.17,0.087,15.64,106.5767,16.11,17.02,36.89,0,110.9,13.18,16.92,19.1
"2010-09-03 00:45:30",127112,0.183,50.94,36.63,0.17,15.77,106.5767,16.11,17.01,36.99,0,110.9,13.18,16.92,12.9
"2010-09-03 00:46:00",127113,0.238,59.48,13.69,0.145,15.65,106.5767,16.11,17.01,36.98,0,110.9,13.18,16.92,21.5
"2010-09-03 00:46:30",127114,0.309,113.5,27.01,0.243,15.51,106.5767,16.11,17.01,37.14,0,110.9,13.18,16.92,75.5
"2010-09-03 00:47:00",127115,0.403,114.4,13.62,0.114,15.6,106.5601,16.07,17,37.17,0,110.9,13.18,16.88,76.4
"2010-09-03 00:47:30",127116,0.241,66.25,10.57,0.058,15.62,106.5433,16.02,17,37.24,0,110.9,13.19,16.83,28.2
"2010-09-03 00:48:00",127117,0.262,54.77,5.07,0.046,15.68,106.543,16.02,16.97,37.29,0,110.9,13.19,16.83,16.8
"2010-09-03 00:48:30",127118,0.251,93.3,19.69,0.105,15.56,106.543,16.02,16.96,37.25,0,110.9,13.19,16.83,55.3
"2010-09-03 00:49:00",127119,0.558,96.9,12.42,0.098,15.58,106.543,16.02,16.95,37.11,0,110.9,13.19,16.83,58.9
"2010-09-03 00:49:30",127120,0.598,86.4,3.901,0.099,15.47,106.543,16.02,16.94,37.07,0,110.9,13.19,16.83,48.4
"2010-09-03 00:50:00",127121,0.466,95.7,5.748,0.065,15.62,106.5433,16.02,16.95,37.14,0,110.9,13.19,16.83,57.7
"2010-09-03 00:50:30",127122,0.46,98,5.67,0.084,15.67,106.5436,16.03,16.93,37.26,0,110.9,13.19,16.83,60.0
"2010-09-03 00:51:00",127123,0.641,95.2,7.294,0.066,15.6,106.5405,16.02,16.93,37.36,0,110.9,13.19,16.83,57.2
"2010-09-03 00:51:30",127124,0.553,96.1,5.25,0.081,15.56,106.5285,15.99,16.91,37.37,0,110.9,13.19,16.79,58.1
"2010-09-03 00:52:00",127125,0.532,98.3,3.31,0.064,15.61,106.5212,15.97,16.91,37.19,0,110.9,13.19,16.78,60.3
"2010-09-03 00:52:30",127126,0.499,98.2,7.352,0.067,15.67,106.5204,15.97,16.9,37.18,0,110.9,13.19,16.77,60.2
"2010-09-03 00:53:00",127127,0.557,94,10.45,0.156,15.64,106.526,15.98,16.9,37.19,0,110.9,13.19,16.79,56.0
"2010-09-03 00:53:30",127128,0.476,114.5,4.416,0.053,15.88,106.5442,16.03,16.91,37.16,0,110.9,13.19,16.84,76.5
"2010-09-03 00:54:00",127129,0.292,79.69,27.13,0.275,15.65,106.5478,16.04,16.91,37.15,0,110.9,13.19,16.84,41.7
"2010-09-03 00:54:30",127130,-0.011,83.4,20.94,0.075,15.58,106.5526,16.05,16.92,37.11,0,110.9,13.19,16.86,45.4
"2010-09-03 00:55:00",127131,0.098,60.16,9.44,0.1,15.71,106.557,16.06,16.93,37.05,0,110.9,13.19,16.87,22.2
"2010-09-03 00:55:30",127132,0.271,61.97,9.1,0.074,15.94,106.5802,16.12,16.94,36.98,0,110.9,13.19,16.93,24.0
"2010-09-03 00:56:00",127133,0.243,52.6,14.38,0.21,15.76,106.5798,16.12,16.95,36.96,0,110.9,13.19,16.93,14.6
"2010-09-03 00:56:30",127134,0.65,57.76,7.599,0.097,15.68,106.5821,16.12,16.97,36.93,0,110.9,13.19,16.93,19.8
"2010-09-03 00:57:00",127135,0.441,102.3,11.71,0.148,15.89,106.5683,16.09,16.96,36.91,0,110.9,13.19,16.90,64.3
"2010-09-03 00:57:30",127136,0.393,116.4,5.148,0.042,16.01,106.5676,16.09,16.95,36.92,0,110.9,13.19,16.90,78.4
"2010-09-03 00:58:00",127137,0.244,129,6.607,0.066,15.88,106.5679,16.09,16.95,36.94,0,110.9,13.19,16.90,91.0
"2010-09-03 00:58:30",127138,0.603,120.9,6.149,0.145,15.75,106.5685,16.09,16.94,36.95,0,110.9,13.19,16.90,82.9
"2010-09-03 00:59:00",127139,0.472,112.3,8.14,0.168,15.86,106.57,16.09,16.94,36.86,0,110.9,13.19,16.90,74.3
"2010-09-03 00:59:30",127140,0.285,109.8,6.856,0.05,15.98,106.5697,16.09,16.94,36.89,0,110.9,13.19,16.90,71.8
"2010-09-03 01:00:00",127141,0.59,121.9,6.775,0.172,15.91,106.5646,16.08,16.93,36.94,0,110.9,13.19,16.89,83.9
"2010-09-03 01:00:30",127142,1.047,117.2,3.484,0.065,15.88,106.5531,16.05,16.92,36.98,0,110.9,13.19,16.86,79.2
"2010-09-03 01:01:00",127143,0.908,121.1,3.178,0.144,15.87,106.545,16.03,16.92,36.82,0,110.9,13.19,16.84,83.1
"2010-09-03 01:01:30",127144,0.913,115.5,5.868,0.096,15.98,106.5416,16.02,16.91,36.92,0,110.9,13.19,16.83,77.5
"2010-09-03 01:02:00",127145,0.666,118.5,6.189,0.122,15.93,106.538,16.01,16.9,36.94,0,110.9,13.19,16.82,80.5
"2010-09-03 01:02:30",127146,0.709,132.9,4.321,0.179,15.92,106.5389,16.01,16.9,37,0,110.9,13.19,16.82,94.9
"2010-09-03 01:03:00",127147,1.225,145.9,5.005,0.126,15.96,106.5419,16.02,16.9,37.22,0,110.9,13.19,16.83,107.9
"2010-09-03 01:03:30",127148,1.379,144.8,8.68,0.069,16.07,106.5443,16.03,16.89,37.17,0,110.9,13.19,16.84,106.8
"2010-09-03 01:04:00",127149,1.212,148.8,6.91,0.13,16.11,106.5443,16.03,16.91,37.19,0,110.9,13.19,16.84,110.8
"2010-09-03 01:04:30",127150,0.939,146,11.95,0.108,16.17,106.5449,16.03,16.89,37.22,0,110.9,13.19,16.84,108.0
"2010-09-03 01:05:00",127151,0.914,135.3,4.398,0.105,16.07,106.5455,16.03,16.91,37.2,0,110.9,13.19,16.84,97.3
"2010-09-03 01:05:30",127152,0.84,138.2,5.995,0.199,16.23,106.5466,16.03,16.9,37.19,0,110.9,13.19,16.84,100.2
"2010-09-03 01:06:00",127153,0.796,116.6,9.23,0.121,16.19,106.5452,16.03,16.9,36.99,0,110.9,13.2,16.84,78.6
"2010-09-03 01:06:30",127154,0.939,127,3.797,0.184,16.28,106.5452,16.03,16.91,36.87,0,110.9,13.2,16.84,89.0
"2010-09-03 01:07:00",127155,0.947,131,8.93,0.097,16.29,106.5452,16.03,16.9,36.78,0,110.9,13.2,16.84,93.0
"2010-09-03 01:07:30",127156,0.754,145.3,4.822,0.12,16.42,106.5452,16.03,16.9,36.99,0,110.8,13.2,16.84,107.3
"2010-09-03 01:08:00",127157,0.779,152.6,5.492,0.146,16.37,106.5452,16.03,16.9,37.09,0,110.9,13.2,16.84,114.6
"2010-09-03 01:08:30",127158,0.78,147.3,4.175,0.062,16.49,106.5452,16.03,16.9,37.11,0,110.8,13.2,16.84,109.3
"2010-09-03 01:09:00",127159,0.652,151.5,2.647,0.067,16.44,106.5441,16.03,16.9,37.03,0,110.8,13.2,16.83,113.5
"2010-09-03 01:09:30",127160,0.608,144.3,4.9,0.076,16.48,106.5427,16.02,16.89,37.12,0,110.8,13.2,16.83,106.3
"2010-09-03 01:10:00",127161,0.923,141.8,2.777,0.153,16.33,106.5396,16.02,16.89,37.13,0,110.8,13.2,16.82,103.8
"2010-09-03 01:10:30",127162,1.092,129.1,5.92,0.085,16.45,106.5292,15.99,16.89,36.98,0,110.8,13.2,16.80,91.1
"2010-09-03 01:11:00",127163,0.896,119.9,4.164,0.082,16.37,106.5207,15.97,16.88,36.82,0,110.8,13.2,16.77,81.9
"2010-09-03 01:11:30",127164,0.976,108.1,6.813,0.091,16.5,106.516,15.95,16.88,36.74,0,110.8,13.2,16.76,70.1
"2010-09-03 01:12:00",127165,0.898,115.9,10.93,0.147,16.39,106.5126,15.95,16.87,36.71,0,110.8,13.2,16.75,77.9
"2010-09-03 01:12:30",127166,0.591,136.8,7.228,0.049,16.44,106.5121,15.94,16.85,36.53,0,110.8,13.2,16.75,98.8
"2010-09-03 01:13:00",127167,0.577,168.6,7.235,0.098,16.57,106.5133,15.95,16.86,36.64,0,110.8,13.2,16.76,130.6
"2010-09-03 01:13:30",127168,0.676,169.1,6.331,0.135,16.57,106.5166,15.96,16.86,36.85,0,110.8,13.2,16.76,131.1
"2010-09-03 01:14:00",127169,0.812,166.3,5.805,0.126,16.5,106.5193,15.96,16.85,36.75,0,110.8,13.2,16.77,128.3
"2010-09-03 01:14:30",127170,0.573,153,7.258,0.121,16.61,106.5159,15.95,16.84,36.83,0,110.8,13.2,16.76,115.0
"2010-09-03 01:15:00",127171,0.995,156.1,8.69,0.177,16.54,106.5067,15.93,16.84,36.64,0,110.8,13.2,16.74,118.1
"2010-09-03 01:15:30",127172,1.27,137.9,5.837,0.074,16.54,106.4995,15.91,16.82,36.44,0,110.8,13.2,16.72,99.9
"2010-09-03 01:16:00",127173,1.508,148.3,3.838,0.172,16.59,106.4956,15.9,16.82,36.18,0,110.8,13.2,16.71,110.3
"2010-09-03 01:16:30",127174,1.575,137.9,9.54,0.158,16.6,106.5002,15.91,16.82,36.29,0,110.8,13.2,16.72,99.9
"2010-09-03 01:17:00",127175,1.56,143.4,8.45,0.097,16.7,106.505,15.93,16.8,36.24,0,110.8,13.2,16.73,105.4
"2010-09-03 01:17:30",127176,1.715,145.8,2.451,0.116,16.71,106.5083,15.93,16.8,36.15,0,110.8,13.2,16.74,107.8
"2010-09-03 01:18:00",127177,1.382,139.1,3.733,0.234,16.73,106.5119,15.94,16.8,36.23,0,110.8,13.2,16.75,101.1
"2010-09-03 01:18:30",127178,1.173,137.8,2.214,0.098,16.72,106.5134,15.95,16.78,36.29,0,110.8,13.2,16.76,99.8
"2010-09-03 01:19:00",127179,1.209,142.6,3.218,0.148,16.8,106.5137,15.95,16.79,36.22,0,110.8,13.2,16.76,104.6
"2010-09-03 01:19:30",127180,1.001,138.7,5.06,0.124,16.89,106.5137,15.95,16.78,36.19,0,110.8,13.2,16.76,100.7
"2010-09-03 01:20:00",127181,0.838,119.9,7.184,0.089,16.89,106.5137,15.95,16.79,36.21,0,110.8,13.2,16.76,81.9
"2010-09-03 01:20:30",127182,0.871,133.2,7.279,0.103,16.98,106.5137,15.95,16.8,36.22,0,110.8,13.2,16.76,95.2
"2010-09-03 01:21:00",127183,1.159,138.9,5.192,0.065,16.9,106.5137,15.95,16.79,36.14,0,110.8,13.2,16.76,100.9
"2010-09-03 01:21:30",127184,1.353,131.9,3.596,0.143,16.95,106.5137,15.95,16.8,36.09,0,110.8,13.21,16.76,93.9
"2010-09-03 01:22:00",127185,1.57,135.7,4.836,0.078,16.98,106.5123,15.95,16.8,35.98,0,110.8,13.21,16.75,97.7
"2010-09-03 01:22:30",127186,1.488,138,2.029,0.054,17.04,106.5044,15.93,16.79,36,0,110.7,13.21,16.73,100.0
"2010-09-03 01:23:00",127187,1.419,130.3,4.323,0.149,16.96,106.5021,15.92,16.8,36.06,0,110.8,13.21,16.73,92.3
"2010-09-03 01:23:30",127188,1.496,138.1,6.941,0.115,17.02,106.5013,15.92,16.79,36.01,0,110.8,13.21,16.72,100.1
"2010-09-03 01:24:00",127189,1.378,141.9,2.991,0.086,17.03,106.4934,15.9,16.79,35.88,0,110.7,13.21,16.70,103.9
"2010-09-03 01:24:30",127190,1.474,138.4,2.171,0.12,17.04,106.4836,15.87,16.79,35.93,0,110.7,13.21,16.68,100.4
"2010-09-03 01:25:00",127191,1.309,138.2,5.586,0.099,16.95,106.4856,15.88,16.8,35.8,0,110.7,13.22,16.68,100.2
"2010-09-03 01:25:30",127192,1.521,148.1,1.903,0.056,16.98,106.4961,15.9,16.78,35.7,0,110.7,13.22,16.71,110.1
"2010-09-03 01:26:00",127193,1.272,144.7,3.16,0.115,16.96,106.5042,15.92,16.78,35.89,0,110.7,13.22,16.73,106.7
"2010-09-03 01:26:30",127194,1.175,143.1,3.256,0.086,16.95,106.5072,15.93,16.78,35.99,0,110.7,13.22,16.74,105.1
"2010-09-03 01:27:00",127195,1.328,136,2.448,0.114,17,106.5102,15.94,16.79,35.99,0,110.7,13.22,16.75,98.0
"2010-09-03 01:27:30",127196,1.804,138.3,2.447,0.169,16.98,106.5132,15.95,16.78,35.58,0,110.7,13.22,16.76,100.3
"2010-09-03 01:28:00",127197,1.886,141,1.659,0.114,16.91,106.5159,15.95,16.77,35.55,0,110.7,13.22,16.76,103.0
"2010-09-03 01:28:30",127198,1.799,144.6,2.236,0.1,16.96,106.5136,15.95,16.78,35.62,0,110.7,13.23,16.76,106.6
"2010-09-03 01:29:00",127199,1.521,145,2.621,0.135,16.97,106.5063,15.93,16.78,35.57,0,110.7,13.23,16.74,107.0
"2010-09-03 01:29:30",127200,1.583,141.7,2.827,0.105,17.05,106.495,15.9,16.77,35.58,0,110.7,13.23,16.71,103.7
"2010-09-03 01:30:00",127201,1.543,141.6,2.602,0.14,17.06,106.4897,15.89,16.77,35.63,0,110.7,13.23,16.69,103.6
"2010-09-03 01:30:30",127202,1.709,143.7,3.928,0.169,16.98,106.4852,15.88,16.75,35.66,0,110.7,13.23,16.68,105.7
"2010-09-03 01:31:00",127203,1.486,145.1,4.715,0.088,17.05,106.4827,15.87,16.77,35.68,0,110.7,13.23,16.68,107.1
"2010-09-03 01:31:30",127204,1.308,148.1,2.821,0.147,17.02,106.4821,15.87,16.76,35.7,0,110.7,13.23,16.68,110.1
"2010-09-03 01:32:00",127205,1.668,147.8,4.23,0.153,17,106.4821,15.87,16.78,35.47,0,110.7,13.23,16.68,109.8
"2010-09-03 01:32:30",127206,1.569,142.2,3.922,0.173,17.04,106.4821,15.87,16.76,35.42,0,110.7,13.23,16.68,104.2
"2010-09-03 01:33:00",127207,1.519,128.7,2.944,0.082,16.96,106.4848,15.87,16.77,35.61,0,110.6,13.23,16.68,90.7
"2010-09-03 01:33:30",127208,1.664,133.4,4.124,0.196,17.05,106.4872,15.88,16.77,35.55,0,110.7,13.23,16.69,95.4
"2010-09-03 01:34:00",127209,1.785,131.8,2.491,0.182,17.1,106.4896,15.89,16.77,35.54,0,110.7,13.23,16.69,93.8
"2010-09-03 01:34:30",127210,1.921,129.3,1.796,0.085,17.13,106.4923,15.89,16.78,35.48,0,110.7,13.23,16.70,91.3
"2010-09-03 01:35:00",127211,2.076,130.4,1.042,0.069,17.13,106.5019,15.92,16.78,35.64,0,110.7,13.23,16.73,92.4
"2010-09-03 01:35:30",127212,2.088,131.4,1.397,0.049,17.06,106.5097,15.94,16.79,35.55,0,110.6,13.23,16.75,93.4
"2010-09-03 01:36:00",127213,1.972,131,1.496,0.087,17.16,106.5106,15.94,16.78,35.45,0,110.6,13.23,16.75,93.0
"2010-09-03 01:36:30",127214,2.065,128.4,4.346,0.09,17.06,106.5154,15.95,16.79,35.47,0,110.6,13.23,16.76,90.4
"2010-09-03 01:37:00",127215,1.848,120.2,1.192,0.074,17.01,106.5169,15.96,16.78,35.67,0,110.6,13.23,16.76,82.2
"2010-09-03 01:37:30",127216,1.774,117.1,1.846,0.077,17.12,106.5169,15.96,16.79,35.68,0,110.6,13.23,16.76,79.1
"2010-09-03 01:38:00",127217,1.72,124.2,5.077,0.093,17.09,106.5164,15.96,16.78,35.69,0,110.6,13.23,16.76,86.2
"2010-09-03 01:38:30",127218,1.528,123.9,2.364,0.062,17.08,106.5133,15.95,16.79,35.73,0,110.6,13.24,16.76,85.9
"2010-09-03 01:39:00",127219,1.453,123.2,1.803,0.071,17.1,106.5096,15.94,16.79,35.71,0,110.6,13.24,16.75,85.2
"2010-09-03 01:39:30",127220,1.323,122.9,2.659,0.061,17.11,106.5077,15.93,16.79,35.65,0,110.6,13.24,16.74,84.9
"2010-09-03 01:40:00",127221,1.351,122.7,4.862,0.087,17.05,106.504,15.92,16.79,35.71,0,110.6,13.24,16.73,84.7
"2010-09-03 01:40:30",127222,1.524,131.1,1.493,0.083,16.98,106.4975,15.91,16.8,35.35,0,110.6,13.24,16.71,93.1
"2010-09-03 01:41:00",127223,1.515,135.6,1.686,0.044,17.12,106.4868,15.88,16.79,35.25,0,110.6,13.25,16.69,97.6
"2010-09-03 01:41:30",127224,1.691,131.8,1.007,0.09,17.08,106.4846,15.87,16.8,35.06,0,110.6,13.25,16.68,93.8
"2010-09-03 01:42:00",127225,1.572,135.5,2.511,0.077,17.11,106.4849,15.88,16.78,34.99,0,110.6,13.25,16.68,97.5
"2010-09-03 01:42:30",127226,1.462,132.2,1.023,0.05,16.93,106.4888,15.89,16.77,35.04,0,110.6,13.25,16.69,94.2
"2010-09-03 01:43:00",127227,1.404,131.1,1.632,0.053,16.99,106.496,15.9,16.77,35.11,0,110.6,13.25,16.71,93.1
"2010-09-03 01:43:30",127228,1.27,129.6,1.06,0.017,17.13,106.5021,15.92,16.78,35.13,0,110.6,13.25,16.73,91.6
"2010-09-03 01:44:00",127229,1.399,133.6,1.625,0.07,17,106.5084,15.94,16.76,35.02,0,110.6,13.26,16.74,95.6
"2010-09-03 01:44:30",127230,1.532,135.7,1.705,0.077,17.1,106.5037,15.92,16.77,34.92,0,110.6,13.25,16.73,97.7
"2010-09-03 01:45:00",127231,1.52,136.8,4.62,0.066,17.04,106.4942,15.9,16.77,34.91,0,110.6,13.26,16.71,98.8
"2010-09-03 01:45:30",127232,1.417,145.2,3.592,0.092,17.04,106.4949,15.9,16.75,34.89,0,110.6,13.26,16.71,107.2
"2010-09-03 01:46:00",127233,1.437,138.9,3.805,0.06,17.09,106.4893,15.89,16.75,34.98,0,110.6,13.26,16.69,100.9
"2010-09-03 01:46:30",127234,1.473,142.1,2.483,0.076,17.16,106.4876,15.88,16.77,34.81,0,110.6,13.26,16.69,104.1
"2010-09-03 01:47:00",127235,1.52,142.3,1.247,0.058,17.15,106.4865,15.88,16.75,34.6,0,110.6,13.26,16.69,104.3
"2010-09-03 01:47:30",127236,1.667,139.8,2.067,0.104,17.09,106.4865,15.88,16.76,34.59,0,110.6,13.26,16.69,101.8
"2010-09-03 01:48:00",127237,1.822,136,2.393,0.09,17.03,106.4865,15.88,16.76,34.57,0,110.6,13.26,16.69,98.0
"2010-09-03 01:48:30",127238,2.073,136.3,2.091,0.102,16.97,106.4865,15.88,16.76,34.55,0,110.6,13.26,16.69,98.3
"2010-09-03 01:49:00",127239,2.219,137.5,3.94,0.06,17.05,106.4865,15.88,16.76,34.54,0,110.6,13.26,16.69,99.5